[[{"header":{"parameterUnit":"m.s-1","parameterCategory":1,"la1":30.2991,"la2":30.254,"lo1":-89.0895,"lo2":-89.0444,"dy":0.0017,"dx":0.0017,"nx":28,"ny":28,"refTime":"2025-06-17T21:00:00:Z","depth":0,"parameterNumber":2,"parameterNumberName":"U-component_of_WINDS"},"data":[0,0,0,0,0,0,0,0,0,0,0,0,0,0,0,0,0,0,0,0,0,0,0,0,0,0,0,0,0,0,0,0,0,0,0,0,0,0,0,0,0,0,0,0,0,0,0,0,0,0,0,0,0,0,0,0,0,0,1.101,1.101,0,1.1065,1.1066,1.1067,1.1137,1.1139,1.114,1.1141,1.1198,1.1198,1.1198,0,0,0,0,0,0,0,0,0,0,0,0,0,1.0968,1.0968,1.101,1.1011,1.1011,1.1065,1.1066,1.1067,1.1137,1.1139,1.114,1.1141,1.1197,1.1198,1.1199,0,0,0,0,0,0,0,0,0,0,0,0,0,1.1001,1.0968,1.101,1.1053,1.1057,1.1065,1.1066,1.1067,1.1137,1.1139,1.114,1.1142,1.1197,1.1198,1.1199,1.1168,0,0,1.1201,1.1201,0,0,0,0,0,0,0,0,1.0999,1.1002,1.1046,1.105,1.1055,1.1096,1.1072,1.1101,1.1137,1.1107,1.1141,1.1143,1.1162,1.1166,1.1173,1.1171,1.1173,1.1201,1.1201,1.1201,1.1202,0,0,0,0,0,0,0,1.0996,1.1,1.1032,1.1046,1.1052,1.1071,1.1077,1.1078,1.1124,1.1109,1.1115,1.112,1.1165,1.1172,1.1175,1.1174,1.1201,1.1201,1.1202,1.1202,1.1155,1.1153,0,0,0,0,0,0,1.0988,1.0998,1.103,1.1034,1.1031,1.107,1.1077,1.1081,1.1124,1.1133,1.1119,1.1123,1.117,1.1174,1.1177,1.1146,1.1201,1.1202,1.1202,1.1156,1.1154,1.1152,0,0,0,0,0,0,1.0986,1.099,1.1028,1.1017,1.1024,1.1069,1.1073,1.1081,1.1088,1.1132,1.114,1.1117,1.1171,1.1176,1.1171,1.1149,1.1202,1.1203,1.1158,1.1156,1.1153,1.1084,0,0,0,0,0,0,1.0985,1.0989,1.0977,1.1016,1.1024,1.102,1.1071,1.1081,1.1089,1.1096,1.1132,1.114,1.1173,1.1169,1.1171,1.1151,1.1203,1.116,1.1157,1.1154,1.1088,1.1079,1.1071,0,0,0,0,0,1.0983,1.0954,1.0976,1.0979,1.101,1.1018,1.1022,1.1061,1.1087,1.1076,1.1105,1.1139,1.1152,1.1168,1.1171,1.1151,1.1162,1.1158,1.1154,1.1092,1.1081,1.1072,0,0,0,0,0,0,1.091,1.096,1.0984,1.0967,1.0988,1.103,1.1017,1.1048,1.1062,1.1067,1.1115,1.1123,1.1113,1.1131,1.1149,1.1126,1.1162,1.1159,1.1113,1.1103,1.1095,1.1091,1.1204,0,0,0,0,0,1.0892,1.0894,1.0938,1.0919,1.0928,1.0971,1.0976,1.1005,1.1028,1.1037,1.1065,1.1086,1.1096,1.1101,1.1112,1.1092,1.1102,1.108,1.1071,1.1064,1.106,1.1054,1.1045,1.114,1.114,1.114,0,0,1.0854,1.0882,1.088,1.0905,1.0924,1.0927,1.0977,1.0977,1.098,1.1037,1.1034,1.1056,1.1083,1.1071,1.1068,1.1087,1.1037,1.1059,1.1053,1.1054,1.1049,1.104,1.1032,1.1138,1.1138,1.1139,0,0,1.0787,1.0808,1.0795,1.0814,1.0844,1.0873,1.087,1.0908,1.0925,1.0923,1.0967,1.0972,1.0986,1.1005,1.1016,1.0961,1.0993,1.0963,1.0919,1.0912,1.0905,1.0899,1.088,1.0873,1.0959,1.0959,1.0959,0,1.0737,1.0741,1.0785,1.0783,1.0793,1.0847,1.0835,1.0852,1.0883,1.0889,1.0911,1.0933,1.0955,1.0949,1.0936,1.0943,1.0943,1.0958,1.0902,1.0896,1.0891,1.0874,1.0867,1.0956,1.0956,1.0956,1.0957,0,1.0679,1.0681,1.0668,1.0698,1.0707,1.07,1.0744,1.0749,1.0778,1.0805,1.0804,1.0834,1.0853,1.0854,1.0881,1.0853,1.0865,1.0893,1.0931,1.0878,1.0863,1.0856,1.095,1.0951,1.0953,1.0954,0,0,1.0564,1.0621,1.0615,1.063,1.0668,1.0672,1.0669,1.0688,1.0692,1.0713,1.0712,1.0726,1.0754,1.0767,1.0798,1.0792,1.0748,1.0822,1.0824,1.0808,1.0722,1.0699,1.0691,1.0771,1.077,1.0769,1.072,0,1.0504,1.0501,1.0542,1.0528,1.0533,1.0586,1.0584,1.0608,1.0634,1.0643,1.0673,1.0682,1.0718,1.0726,1.0723,1.0754,1.0732,1.0758,1.0772,1.0772,1.0763,1.0683,1.0658,1.061,1.0714,1.0713,1.0712,0,1.0432,1.0451,1.0437,1.0479,1.0483,1.048,1.0503,1.051,1.0539,1.056,1.0576,1.0612,1.0614,1.0651,1.0655,1.0672,1.0681,1.0698,1.0697,1.0699,1.0738,1.0683,1.0595,1.0588,1.0703,1.0704,1.0704,0,1.0351,1.0372,1.0368,1.0379,1.0428,1.0425,1.0445,1.0477,1.0487,1.0507,1.0515,1.0535,1.0546,1.0562,1.0603,1.0626,1.0604,1.0643,1.0622,1.062,1.0613,1.0613,1.0526,1.0619,1.0619,1.0619,1.0619,0,1.0279,1.0269,1.0332,1.0329,1.0321,1.037,1.036,1.0386,1.0414,1.0419,1.0466,1.047,1.0525,1.0535,1.0568,1.0568,1.0572,1.0589,1.0598,1.0585,1.0583,1.059,1.0595,1.0617,1.0618,1.0618,1.0618,0,1.0185,1.0227,1.0226,1.0273,1.0285,1.0277,1.0318,1.0318,1.035,1.0355,1.0359,1.0408,1.0423,1.0467,1.0492,1.0515,1.0505,1.0522,1.0495,1.05,1.0477,1.0478,1.0391,1.0383,1.0481,1.048,1.0479,0,1.0136,1.013,1.0177,1.0184,1.0202,1.0212,1.0224,1.0273,1.0283,1.0318,1.0315,1.0334,1.0352,1.0373,1.0412,1.0433,1.045,1.0419,1.0454,1.0442,1.0451,1.045,1.0451,1.041,1.0409,1.0408,1.0407,0,1.0045,1.0067,1.0081,1.0104,1.0116,1.0136,1.0158,1.0161,1.0217,1.0226,1.0243,1.0256,1.0285,1.0303,1.0331,1.0354,1.039,1.0396,1.0393,1.0378,1.0363,1.0372,1.0474,1.0397,1.0398,1.0399,1.04,1.04,0.9973,0.9971,1.0005,1.002,1.0043,1.0064,1.0067,1.01,1.0114,1.0141,1.017,1.0183,1.0217,1.0258,1.0279,1.0291,1.031,1.0305,1.0303,1.0301,1.0295,1.0362,1.0297,1.0297,1.0297,1.0298,1.0298,0,0.9884,0.991,0.9923,0.9955,0.9967,1.0002,1.003,1.0038,1.005,1.0078,1.0096,1.0116,1.0136,1.0177,1.0201,1.0204,1.0221,1.0208,1.0208,1.0213,1.0276,1.0277,1.0194,1.0194,1.0194,1.0194,1.0194,1.0194,0.984,0.9839,0.9866,0.9878,0.9904,0.9918,0.9931,0.9952,0.9975,0.9996,1.0013,1.004,1.0075,1.0103,1.0123,1.0135,1.0142,1.0124,1.0141,1.0199,1.0208,1.0218,1.0219,1.0125,1.0125,1.0077,1.0077,1.0076]},{"header":{"parameterUnit":"m.s-1","parameterCategory":1,"la1":30.2991,"la2":30.254,"lo1":-89.0895,"lo2":-89.0444,"dy":0.0017,"dx":0.0017,"nx":28,"ny":28,"refTime":"2025-06-17T21:00:00:Z","depth":0,"parameterNumber":3,"parameterNumberName":"V-component_of_WINDS"},"data":[0,0,0,0,0,0,0,0,0,0,0,0,0,0,0,0,0,0,0,0,0,0,0,0,0,0,0,0,0,0,0,0,0,0,0,0,0,0,0,0,0,0,0,0,0,0,0,0,0,0,0,0,0,0,0,0,0,0,3.9282,3.9283,0,3.9371,3.9372,3.9373,3.9392,3.9392,3.9391,3.939,3.9473,3.9476,3.9479,0,0,0,0,0,0,0,0,0,0,0,0,0,3.9119,3.9122,3.9282,3.9283,3.9284,3.9371,3.9372,3.9373,3.9392,3.9392,3.9391,3.939,3.9472,3.9476,3.9479,0,0,0,0,0,0,0,0,0,0,0,0,0,3.9197,3.9123,3.9282,3.9304,3.9307,3.9371,3.9372,3.9374,3.9392,3.9391,3.9391,3.939,3.9471,3.9475,3.9479,3.9524,0,0,3.9492,3.9494,0,0,0,0,0,0,0,0,3.9192,3.9203,3.93,3.9303,3.9306,3.937,3.9345,3.9424,3.9393,3.936,3.939,3.9389,3.9439,3.9446,3.9464,3.9528,3.9531,3.9492,3.9495,3.9497,3.9498,0,0,0,0,0,0,0,3.9187,3.9199,3.9317,3.9301,3.9305,3.9307,3.9317,3.936,3.9403,3.9363,3.9364,3.9375,3.944,3.946,3.9466,3.9533,3.9492,3.9496,3.9499,3.95,3.9634,3.9635,0,0,0,0,0,0,3.9179,3.9194,3.9314,3.932,3.9246,3.9311,3.9322,3.935,3.9403,3.941,3.9376,3.9376,3.9453,3.9461,3.9469,3.9523,3.9497,3.9501,3.9503,3.9633,3.9635,3.9636,0,0,0,0,0,0,3.9175,3.9189,3.9311,3.9258,3.9273,3.9315,3.9346,3.9352,3.9372,3.9413,3.942,3.9389,3.9453,3.9463,3.951,3.9527,3.9503,3.9506,3.9632,3.9634,3.9635,3.9633,0,0,0,0,0,0,3.9171,3.9188,3.9208,3.9258,3.9276,3.9353,3.9347,3.9355,3.9381,3.9381,3.9427,3.9433,3.9453,3.9504,3.9514,3.9532,3.951,3.9631,3.9633,3.9635,3.9632,3.9634,3.9637,0,0,0,0,0,3.9165,3.9202,3.9209,3.9223,3.9302,3.9354,3.9364,3.9388,3.9382,3.94,3.9426,3.9432,3.9523,3.9509,3.9521,3.954,3.963,3.9632,3.9635,3.9631,3.9634,3.9637,0,0,0,0,0,0,3.915,3.9209,3.9217,3.9273,3.9309,3.9357,3.9381,3.9391,3.9427,3.9426,3.9452,3.9462,3.9507,3.9528,3.951,3.9584,3.9576,3.9581,3.9569,3.9572,3.9574,3.9568,3.9513,0,0,0,0,0,3.9154,3.9194,3.9243,3.9287,3.9305,3.934,3.9363,3.9379,3.9416,3.943,3.946,3.9493,3.9529,3.9552,3.9587,3.9635,3.9644,3.9654,3.9656,3.9658,3.9661,3.9686,3.969,3.9644,3.9644,3.9644,0,0,3.9161,3.9199,3.9222,3.9285,3.9314,3.9352,3.9352,3.9393,3.942,3.9436,3.9482,3.9504,3.9543,3.959,3.9612,3.9609,3.9676,3.9661,3.9662,3.9665,3.9689,3.9693,3.9697,3.9645,3.9645,3.9645,0,0,3.9194,3.9227,3.9267,3.9297,3.9343,3.9366,3.9375,3.9422,3.9438,3.9486,3.9498,3.9529,3.9591,3.9617,3.9639,3.968,3.9685,3.969,3.9702,3.9726,3.9729,3.9733,3.9745,3.975,3.9694,3.9694,3.9694,0,3.9196,3.9257,3.9285,3.9326,3.9351,3.937,3.9408,3.9435,3.9488,3.9504,3.95,3.9578,3.9605,3.9657,3.9667,3.9685,3.9694,3.9685,3.9727,3.9731,3.9734,3.9746,3.9751,3.9694,3.9694,3.9694,3.9694,0,3.9257,3.9298,3.9324,3.9378,3.9407,3.9446,3.9477,3.9502,3.9515,3.9537,3.9583,3.9617,3.9658,3.9672,3.9684,3.9726,3.9722,3.9722,3.9714,3.9738,3.975,3.9755,3.9694,3.9694,3.9694,3.9694,0,0,3.9282,3.9352,3.936,3.9384,3.9435,3.9466,3.9504,3.9548,3.9568,3.9603,3.9634,3.9686,3.9686,3.971,3.9725,3.9746,3.9774,3.9744,3.9745,3.9747,3.9819,3.9817,3.9822,3.9778,3.9779,3.978,3.9815,0,3.932,3.9392,3.9418,3.9476,3.9513,3.953,3.9563,3.9596,3.9617,3.9649,3.9672,3.9707,3.9706,3.9721,3.9742,3.9766,3.9788,3.9764,3.9804,3.9805,3.9793,3.9829,3.9828,3.9859,3.982,3.9821,3.9821,0,3.9373,3.9412,3.9475,3.952,3.9536,3.9566,3.9606,3.9638,3.9674,3.9688,3.9715,3.9728,3.9765,3.9756,3.9806,3.9788,3.9806,3.982,3.9822,3.9825,3.9814,3.9832,3.987,3.9874,3.9829,3.9828,3.9828,0,3.9383,3.9451,3.9497,3.9517,3.9571,3.9591,3.9614,3.965,3.9674,3.9708,3.9723,3.976,3.978,3.9808,3.9829,3.9821,3.9876,3.9869,3.9886,3.9886,3.9896,3.9895,3.9936,3.991,3.991,3.991,3.991,0,3.9421,3.9458,3.9502,3.953,3.9571,3.9599,3.9637,3.9661,3.9692,3.9723,3.9739,3.9766,3.9794,3.9824,3.9841,3.9878,3.9887,3.9897,3.9901,3.9896,3.9894,3.9907,3.9904,3.9911,3.9911,3.9911,3.991,0,3.944,3.9471,3.9522,3.9569,3.9582,3.961,3.9649,3.9674,3.9697,3.9735,3.9745,3.9779,3.9815,3.984,3.9885,3.9897,3.9936,3.9941,3.9925,3.9927,3.9942,3.994,3.9992,3.9999,3.9969,3.9969,3.9969,0,3.9461,3.9491,3.9542,3.9565,3.9588,3.9625,3.965,3.9677,3.9702,3.9745,3.9764,3.9802,3.9834,3.989,3.9917,3.9951,3.9955,3.9971,3.9961,3.9953,3.9954,3.9951,3.9953,3.9972,3.9973,3.9973,3.9973,0,3.9496,3.951,3.9547,3.9589,3.9618,3.9652,3.9685,3.9702,3.9735,3.9761,3.98,3.9824,3.9872,3.9908,3.9945,3.9965,3.9973,3.9976,3.9982,3.9976,3.9965,3.9969,3.9928,3.9975,3.9975,3.9974,3.9974,3.9974,3.9515,3.9542,3.9582,3.9621,3.965,3.9681,3.9707,3.9733,3.9767,3.981,3.9823,3.9862,3.9895,3.9946,3.9967,3.9996,3.9994,4.0003,4.0004,4.0006,4.0005,3.9961,4.0003,4.0003,4.0002,4.0002,4.0002,0,3.9549,3.9576,3.9613,3.966,3.9691,3.9699,3.9736,3.976,3.9795,3.9827,3.9859,3.9901,3.9936,3.9966,4.0001,4.0019,4.0023,4.0027,4.0025,4.0029,4.0005,3.9996,4.0022,4.0022,4.0022,4.0022,4.0022,4.0022,3.9571,3.9615,3.9633,3.9691,3.9716,3.9757,3.9777,3.9804,3.983,3.9878,3.9909,3.9929,3.9958,3.9996,4.0027,4.0035,4.0046,4.0049,4.0057,4.0033,4.0031,4.0029,4.0021,4.0051,4.0051,4.0078,4.0078,4.0079]}]]